Change the Weather History Date:

Wednesday, April 10, 2013

  Actual Average Record
Temperature  
Mean Temperature 44 °F -  
Max Temperature 54 °F - - ()
Min Temperature 34 °F - - ()
Degree Days  
Heating Degree Days 21    
Moisture  
Dew Point 35 °F    
Average Humidity 73    
Maximum Humidity 97    
Minimum Humidity 40    
Precipitation  
Precipitation 0.00 in - - ()
Sea Level Pressure  
Sea Level Pressure 29.94 in    
Wind  
Wind Speed 2 mph ()    
Max Wind Speed 20 mph    
Max Gust Speed 29 mph    
T = Trace of Precipitation, MM = Missing Value Source: Averaged Metar Reports

Daily Weather History Graph

Daily Weather History Graph

Search for Another Location

Airport or City:

Trip Planner

Search our weather history database for the weather conditions in past years. The results will help you decide how hot, cold, wet, or windy it might be!

Date:

Astronomy

Apr. 10, 2013 Rise Set
Actual Time 6:19 AM PDT 7:47 PM PDT
Civil Twilight 5:46 AM PDT 8:21 PM PDT
Nautical Twilight 5:05 AM PDT 9:01 PM PDT
Astronomical Twilight 4:22 AM PDT 9:46 PM PDT
Moon 6:15 AM PDT (4/10) 8:35 PM PDT (4/10)
Length of Visible Light 14h 34m
Length of Day
13h 28m
New Moon, 0% of the Moon is Illuminated
Apr 10
New Moon
Apr 18
First Quarter
Apr 25
Full
May 2
Last Quarter
May 9
New

Hourly Weather History & Observations

Time (PDT) Temp. Windchill Dew Point Humidity Pressure Visibility Wind Dir Wind Speed Gust Speed Precip Events Conditions
12:00 AM 40.1 °F - 37.0 °F 89% 30.11 in - Calm Calm - N/A   Unknown
1:00 AM 38.1 °F - 36.3 °F 93% 30.08 in - Calm Calm - N/A   Unknown
2:00 AM 37.4 °F - 35.6 °F 93% 30.05 in - Calm Calm - N/A   Unknown
3:00 AM 37.0 °F - 35.6 °F 95% 30.03 in - Calm Calm - N/A   Unknown
4:00 AM 36.0 °F - 34.7 °F 95% 29.99 in - Calm Calm - N/A   Unknown
5:00 AM 36 °F - 35 °F 92% 29.97 in - Calm Calm - -  
5:00 AM 35.8 °F - 34.5 °F 95% 29.97 in - Calm Calm - N/A   Unknown
6:00 AM 35.1 °F - 34.2 °F 97% 29.93 in - Calm Calm - N/A   Unknown
7:00 AM 34.9 °F - 34.0 °F 97% 29.88 in - Calm Calm - N/A   Unknown
8:00 AM 37.6 °F - 36.7 °F 97% 29.85 in - Calm Calm - N/A   Unknown
9:00 AM 40.1 °F - 37.4 °F 90% 29.79 in - Calm Calm - N/A   Unknown
10:00 AM 44.8 °F - 40.1 °F 84% 29.78 in - Calm Calm - N/A   Unknown
11:00 AM 46 °F - 41 °F 77% 29.80 in - SE 1.2 mph - -  
11:00 AM 46.0 °F - 41.2 °F 83% 29.80 in - SE 1.2 mph - N/A   Unknown
12:00 PM 48.4 °F - 41.0 °F 76% 29.81 in - SE 1.2 mph - N/A   Unknown
1:00 PM 51.1 °F - 39.7 °F 65% 29.81 in - West 12.7 mph 19.6 mph N/A   Unknown
2:00 PM 51.4 °F - 34.7 °F 53% 29.85 in - SSW 8.1 mph - N/A   Unknown
3:00 PM 52.9 °F - 34.2 °F 49% 29.87 in - SW 12.7 mph 19.6 mph N/A   Unknown
4:00 PM 52.3 °F - 34.0 °F 50% 29.92 in - West 13.8 mph 28.8 mph N/A   Unknown
5:00 PM 51 °F - 34 °F 40% 29.96 in - West 13.8 mph - -  
5:00 PM 51.4 °F - 34.0 °F 51% 29.96 in - West 13.8 mph 23.0 mph N/A   Unknown
6:00 PM 49.3 °F - 31.5 °F 50% 29.98 in - WSW 19.6 mph 28.8 mph N/A   Unknown
7:00 PM 48.2 °F - 31.1 °F 52% 30.02 in - WSW 8.1 mph - N/A   Unknown
8:00 PM 46.0 °F 41.9 °F 27.3 °F 48% 30.03 in - West 8.1 mph - N/A   Unknown
10:00 PM 43.0 °F - 28.2 °F 56% 30.06 in - Calm Calm - N/A   Unknown
11:00 PM 41 °F - 30 °F 53% 30.07 in - Calm Calm - -  
11:00 PM 40.8 °F - 29.7 °F 64% 30.07 in - Calm Calm - N/A   Unknown